Weather reports worldwide

Advertisment
Ioannina, Greece (16642): temperature & dewpoint: 13.06.2018 02:00:00 - 19.06.2018 02:00:00 (EEST)Ioannina, Greece (16642): reduced air pressure: 13.06.2018 02:00:00 - 19.06.2018 02:00:00 (EEST)Ioannina, Greece (16642): visibility: 13.06.2018 02:00:00 - 19.06.2018 02:00:00 (EEST)
Date & Time tt [°C] td [°C] ppp [hPa] vv [km]
19.06.2018 02:00:00 - - - -
19.06.2018 01:00:00 - - - -
19.06.2018 00:00:00 - - - -
18.06.2018 23:00:00 - - - -
18.06.2018 22:00:00 19,0 18,0 - 10
18.06.2018 21:00:00 20,8 17,9 1010,9 10
18.06.2018 20:00:00 22,0 19,0 - 10
18.06.2018 19:00:00 24,0 17,0 - 10
18.06.2018 18:00:00 22,4 17,9 1010,2 10
18.06.2018 17:00:00 25,0 20,0 - 10
18.06.2018 16:00:00 26,0 19,0 - 10
18.06.2018 15:00:00 24,4 18,4 1008,5 10
18.06.2018 14:00:00 25,0 16,0 - 10
18.06.2018 13:00:00 24,0 17,0 - 10
18.06.2018 12:00:00 22,4 17,2 1010,2 10
18.06.2018 11:00:00 21,0 18,0 - 10
18.06.2018 10:00:00 20,0 18,0 - 10
18.06.2018 09:00:00 17,6 16,9 1011,3 5
18.06.2018 08:00:00 17,0 17,0 - 2,5
18.06.2018 07:00:00 - - - -
18.06.2018 06:00:00 - - - -
18.06.2018 05:00:00 - - - -
18.06.2018 04:00:00 - - - -
18.06.2018 03:00:00 - - - -
18.06.2018 02:00:00 - - - -
18.06.2018 01:00:00 - - - -
18.06.2018 00:00:00 - - - -
17.06.2018 23:00:00 - - - -
17.06.2018 22:00:00 19,0 18,0 - 10
17.06.2018 21:00:00 19,2 17,9 1010,6 10
17.06.2018 20:00:00 19,0 19,0 - 10
17.06.2018 19:00:00 20,0 18,0 - 10
17.06.2018 18:00:00 19,8 18,2 1010,2 10
17.06.2018 17:00:00 - - - -
17.06.2018 16:00:00 - - - -
17.06.2018 15:00:00 25,4 17,1 1007,8 10
17.06.2018 14:00:00 25,0 16,0 - 10
17.06.2018 13:00:00 24,0 16,0 - 10
17.06.2018 12:00:00 24,2 15,7 1008,9 10
17.06.2018 11:00:00 22,0 16,0 - 10
17.06.2018 10:00:00 19,0 17,0 - 10
17.06.2018 09:00:00 18,2 17,2 1010,3 10
17.06.2018 08:00:00 18,0 17,0 - 10
17.06.2018 07:00:00 - - - -
17.06.2018 06:00:00 - - - -
17.06.2018 05:00:00 - - - -
17.06.2018 04:00:00 - - - -
17.06.2018 03:00:00 - - - -
17.06.2018 02:00:00 - - - -
17.06.2018 01:00:00 - - - -
17.06.2018 00:00:00 - - - -
16.06.2018 23:00:00 - - - -
16.06.2018 22:00:00 18,0 16,0 - 10
16.06.2018 21:00:00 19,8 17,5 1007,8 10
16.06.2018 20:00:00 21,0 18,0 - 10
16.06.2018 19:00:00 22,0 17,0 - 10
16.06.2018 18:00:00 21,2 19,3 1006,5 10
16.06.2018 17:00:00 - - - -
16.06.2018 16:00:00 - - - -
16.06.2018 15:00:00 24,8 16,4 1005,3 10
16.06.2018 14:00:00 22,0 17,0 - 10
16.06.2018 13:00:00 22,0 17,0 - 10
16.06.2018 12:00:00 22,2 16,7 1005,6 10
16.06.2018 11:00:00 20,0 15,0 - 10
16.06.2018 10:00:00 19,0 16,0 - 10
16.06.2018 09:00:00 17,4 16,1 1006,5 10
16.06.2018 08:00:00 15,0 13,0 - 10
16.06.2018 07:00:00 - - - -
16.06.2018 06:00:00 - - - -
16.06.2018 05:00:00 - - - -
16.06.2018 04:00:00 - - - -
16.06.2018 03:00:00 - - - -
16.06.2018 02:00:00 - - - -
16.06.2018 01:00:00 - - - -
16.06.2018 00:00:00 - - - -
15.06.2018 23:00:00 - - - -
15.06.2018 22:00:00 16,0 15,0 - 10
15.06.2018 21:00:00 17,0 15,6 1006,0 10
15.06.2018 20:00:00 18,0 16,0 - 10
15.06.2018 19:00:00 17,0 16,0 - 10
15.06.2018 18:00:00 17,4 16,4 1006,0 10
15.06.2018 17:00:00 18,0 17,0 - 10
15.06.2018 16:00:00 17,0 17,0 - 10
15.06.2018 15:00:00 17,6 16,6 1005,8 10
15.06.2018 14:00:00 20,0 18,0 - 10
15.06.2018 13:00:00 23,0 18,0 - 10
15.06.2018 12:00:00 24,6 16,2 1003,8 10
15.06.2018 11:00:00 19,0 17,0 - 10
15.06.2018 10:00:00 18,0 16,0 - 10
15.06.2018 09:00:00 17,4 16,1 1005,0 10
15.06.2018 08:00:00 17,0 16,0 - 10
15.06.2018 07:00:00 - - - -
15.06.2018 06:00:00 - - - -
15.06.2018 05:00:00 - - - -
15.06.2018 04:00:00 - - - -
15.06.2018 03:00:00 - - - -
15.06.2018 02:00:00 - - - -
15.06.2018 01:00:00 - - - -
15.06.2018 00:00:00 - - - -
14.06.2018 23:00:00 19,0 17,0 - 10
14.06.2018 22:00:00 19,0 17,0 - 10
14.06.2018 21:00:00 20,8 16,9 1005,1 10
14.06.2018 20:00:00 23,0 18,0 - 10
14.06.2018 19:00:00 25,0 19,0 - 10
14.06.2018 18:00:00 25,6 17,0 1003,5 10
14.06.2018 17:00:00 - - - -
14.06.2018 16:00:00 - - - -
14.06.2018 15:00:00 25,0 16,6 1003,9 10
14.06.2018 14:00:00 25,0 17,0 - 10
14.06.2018 13:00:00 22,0 16,0 - 10
14.06.2018 12:00:00 22,8 14,0 1004,2 10
14.06.2018 11:00:00 22,0 16,0 - 10
14.06.2018 10:00:00 20,0 17,0 - 10
14.06.2018 09:00:00 18,6 17,0 1005,0 10
14.06.2018 08:00:00 17,0 17,0 - 10
14.06.2018 07:00:00 - - - -
14.06.2018 06:00:00 - - - -
14.06.2018 05:00:00 - - - -
14.06.2018 04:00:00 - - - -
14.06.2018 03:00:00 - - - -
14.06.2018 02:00:00 - - - -
14.06.2018 01:00:00 - - - -
14.06.2018 00:00:00 - - - -
13.06.2018 23:00:00 - - - -
13.06.2018 22:00:00 22,0 19,0 - 10
13.06.2018 21:00:00 23,0 18,6 1003,5 10
13.06.2018 20:00:00 24,0 18,0 - 10
13.06.2018 19:00:00 25,0 18,0 - 10
13.06.2018 18:00:00 25,6 17,7 1003,4 10
13.06.2018 17:00:00 - - - -
13.06.2018 16:00:00 - - - -
13.06.2018 15:00:00 27,8 15,5 1003,6 10
13.06.2018 14:00:00 27,0 14,0 - 10
13.06.2018 13:00:00 26,0 14,0 - 10
13.06.2018 12:00:00 25,0 13,5 1004,9 10
13.06.2018 11:00:00 24,0 16,0 - 10
13.06.2018 10:00:00 23,0 18,0 - 10
13.06.2018 09:00:00 21,6 18,4 1006,9 10
13.06.2018 08:00:00 18,0 18,0 - 10
13.06.2018 07:00:00 - - - -
13.06.2018 06:00:00 - - - -
13.06.2018 05:00:00 - - - -
13.06.2018 04:00:00 - - - -
13.06.2018 03:00:00 19,4 19,1 1008,2 10
13.06.2018 02:00:00 20,0 19,0 - 10

tt = temperature
td = dewpoint
ppp = reduced air pressure
vv = visibility

Next stations